﻿<?xml version="1.0" encoding="UTF-8" standalone="no"?>
<gpx xmlns="http://www.topografix.com/GPX/1/1" xmlns:gpxtpx="http://www.garmin.com/xmlschemas/TrackPointExtension/v1" xmlns:xsi="http://www.w3.org/2001/XMLSchema-instance" creator="Hribi.net" version="1.1" xsi:schemaLocation="http://www.topografix.com/GPX/1/1 http://www.topografix.com/GPX/1/1/gpx.xsd http://www.garmin.com/xmlschemas/TrackPointExtension/v1 http://www.garmin.com/xmlschemas/TrackPointExtensionv1.xsd">
  <metadata>
    <name>GPS sled</name>
    <desc>www.hribi.net</desc>
    <author>
      <name>hribi.net</name>
    </author>
    <link href="http://www.hribi.net">
      <text>Hribi.net</text>
    </link>
  </metadata>
  <trk>
    <trkseg>
      <trkpt lat="46.0629809837436" lon="15.2843974280408">
        <ele>636.585089812121</ele>
        <time>2018-05-08T16:51:34Z</time>
      </trkpt>
      <trkpt lat="46.0629866375212" lon="15.2846546734362">
        <ele>636.666160475651</ele>
        <time>2018-05-08T16:51:34Z</time>
      </trkpt>
      <trkpt lat="46.0629801993434" lon="15.2848789109527">
        <ele>637.112875559343</ele>
        <time>2018-05-08T16:51:34Z</time>
      </trkpt>
      <trkpt lat="46.0629757005812" lon="15.2848788876597">
        <ele>636.944998292037</ele>
        <time>2018-05-08T16:51:34Z</time>
      </trkpt>
      <trkpt lat="46.0629790706004" lon="15.2848805207877">
        <ele>637.079384063627</ele>
        <time>2018-05-08T16:51:34Z</time>
      </trkpt>
      <trkpt lat="46.0630543478571" lon="15.2849116085019">
        <ele>640.044031564161</ele>
        <time>2018-05-08T16:51:34Z</time>
      </trkpt>
      <trkpt lat="46.0630947272592" lon="15.2849554410364">
        <ele>641.7619461528</ele>
        <time>2018-05-08T16:51:34Z</time>
      </trkpt>
      <trkpt lat="46.0631290167189" lon="15.2851850457573">
        <ele>644.138810273203</ele>
        <time>2018-05-08T16:51:34Z</time>
      </trkpt>
      <trkpt lat="46.0631171649765" lon="15.2854257212016">
        <ele>644.974628651234</ele>
        <time>2018-05-08T16:51:34Z</time>
      </trkpt>
      <trkpt lat="46.0631392566358" lon="15.2855857885528">
        <ele>646.997618736471</ele>
        <time>2018-05-08T16:51:34Z</time>
      </trkpt>
      <trkpt lat="46.0632377985663" lon="15.2857575628713">
        <ele>651.603100790206</ele>
        <time>2018-05-08T16:51:34Z</time>
      </trkpt>
      <trkpt lat="46.0632512704583" lon="15.2857673269632">
        <ele>652.095840242375</ele>
        <time>2018-05-08T16:51:34Z</time>
      </trkpt>
      <trkpt lat="46.0632512704582" lon="15.2857673269632">
        <ele>652.095840238866</ele>
        <time>2018-05-08T16:51:34Z</time>
      </trkpt>
      <trkpt lat="46.0632506822515" lon="15.2857751561311">
        <ele>652.122299003705</ele>
        <time>2018-05-08T16:51:34Z</time>
      </trkpt>
      <trkpt lat="46.0634194290005" lon="15.2859847031279">
        <ele>658.011369792752</ele>
        <time>2018-05-08T16:51:34Z</time>
      </trkpt>
      <trkpt lat="46.0635799493435" lon="15.2863294347482">
        <ele>662.431452451721</ele>
        <time>2018-05-08T16:51:34Z</time>
      </trkpt>
      <trkpt lat="46.0635955238893" lon="15.2863973750988">
        <ele>662.851452763975</ele>
        <time>2018-05-08T16:51:34Z</time>
      </trkpt>
      <trkpt lat="46.0636383354649" lon="15.2863685153575">
        <ele>664.027846165807</ele>
        <time>2018-05-08T16:51:34Z</time>
      </trkpt>
      <trkpt lat="46.0637656128729" lon="15.2862948554686">
        <ele>667.75222776492</ele>
        <time>2018-05-08T16:51:34Z</time>
      </trkpt>
      <trkpt lat="46.0638825073445" lon="15.2863245464164">
        <ele>670.995601209821</ele>
        <time>2018-05-08T16:51:34Z</time>
      </trkpt>
      <trkpt lat="46.0639477230901" lon="15.2863313486218">
        <ele>672.811715228561</ele>
        <time>2018-05-08T16:51:34Z</time>
      </trkpt>
      <trkpt lat="46.0640757462848" lon="15.2864079533053">
        <ele>676.295229394197</ele>
        <time>2018-05-08T16:51:34Z</time>
      </trkpt>
      <trkpt lat="46.0643724485055" lon="15.2864951309493">
        <ele>688.930492733069</ele>
        <time>2018-05-08T16:51:34Z</time>
      </trkpt>
      <trkpt lat="46.06451493352" lon="15.2866348251815">
        <ele>693.62323585033</ele>
        <time>2018-05-08T16:51:34Z</time>
      </trkpt>
      <trkpt lat="46.0646169252852" lon="15.2868333520021">
        <ele>698.478514734896</ele>
        <time>2018-05-08T16:51:34Z</time>
      </trkpt>
      <trkpt lat="46.0646391905002" lon="15.2869239488161">
        <ele>699.517765479369</ele>
        <time>2018-05-08T16:51:34Z</time>
      </trkpt>
      <trkpt lat="46.0646781098473" lon="15.2870428390376">
        <ele>701.530020454529</ele>
        <time>2018-05-08T16:51:34Z</time>
      </trkpt>
      <trkpt lat="46.0647095029916" lon="15.287228072646">
        <ele>702.928894401634</ele>
        <time>2018-05-08T16:51:34Z</time>
      </trkpt>
      <trkpt lat="46.0647460213364" lon="15.287317867641">
        <ele>705.006933810154</ele>
        <time>2018-05-08T16:51:34Z</time>
      </trkpt>
      <trkpt lat="46.0648109630636" lon="15.2874329238161">
        <ele>708.93809920045</ele>
        <time>2018-05-08T16:51:34Z</time>
      </trkpt>
      <trkpt lat="46.0648333914288" lon="15.2874588927238">
        <ele>710.281724005455</ele>
        <time>2018-05-08T16:51:34Z</time>
      </trkpt>
      <trkpt lat="46.0648653401441" lon="15.2875132553366">
        <ele>712.107903030555</ele>
        <time>2018-05-08T16:51:34Z</time>
      </trkpt>
      <trkpt lat="46.0649195280956" lon="15.2874333979717">
        <ele>715.756541434404</ele>
        <time>2018-05-08T16:51:34Z</time>
      </trkpt>
      <trkpt lat="46.0649896721499" lon="15.287092520527">
        <ele>721.33186221748</ele>
        <time>2018-05-08T16:51:34Z</time>
      </trkpt>
      <trkpt lat="46.0650579471407" lon="15.2867787769098">
        <ele>727.533529739937</ele>
        <time>2018-05-08T16:51:34Z</time>
      </trkpt>
      <trkpt lat="46.0650709058982" lon="15.28663536671">
        <ele>729.423196592882</ele>
        <time>2018-05-08T16:51:34Z</time>
      </trkpt>
      <trkpt lat="46.0651054519888" lon="15.286494654027">
        <ele>733.352791509726</ele>
        <time>2018-05-08T16:51:34Z</time>
      </trkpt>
      <trkpt lat="46.0651240634774" lon="15.2863714010697">
        <ele>735.764400443143</ele>
        <time>2018-05-08T16:51:34Z</time>
      </trkpt>
      <trkpt lat="46.0651591240683" lon="15.2862622665084">
        <ele>739.226595751561</ele>
        <time>2018-05-08T16:51:34Z</time>
      </trkpt>
      <trkpt lat="46.065199205472" lon="15.2864240494367">
        <ele>741.198019645459</ele>
        <time>2018-05-08T16:51:34Z</time>
      </trkpt>
      <trkpt lat="46.0652438876666" lon="15.2865772244599">
        <ele>743.812588985226</ele>
        <time>2018-05-08T16:51:34Z</time>
      </trkpt>
      <trkpt lat="46.0654757029168" lon="15.2869726755325">
        <ele>758.564622341279</ele>
        <time>2018-05-08T16:51:34Z</time>
      </trkpt>
      <trkpt lat="46.0655985325464" lon="15.2872029834696">
        <ele>763.375506508249</ele>
        <time>2018-05-08T16:51:34Z</time>
      </trkpt>
      <trkpt lat="46.0656451463346" lon="15.2872717348735">
        <ele>764.971371253516</ele>
        <time>2018-05-08T16:51:34Z</time>
      </trkpt>
      <trkpt lat="46.0657528254166" lon="15.2873873391752">
        <ele>769.352871105101</ele>
        <time>2018-05-08T16:51:34Z</time>
      </trkpt>
      <trkpt lat="46.0657646595578" lon="15.2873331114301">
        <ele>771.041219212467</ele>
        <time>2018-05-08T16:51:34Z</time>
      </trkpt>
      <trkpt lat="46.0657397085002" lon="15.2872373281557">
        <ele>772.107193676778</ele>
        <time>2018-05-08T16:51:34Z</time>
      </trkpt>
      <trkpt lat="46.0656933234623" lon="15.2870780953832">
        <ele>773.038790275678</ele>
        <time>2018-05-08T16:51:34Z</time>
      </trkpt>
      <trkpt lat="46.0656889577063" lon="15.2870509002192">
        <ele>773.399318624046</ele>
        <time>2018-05-08T16:51:34Z</time>
      </trkpt>
      <trkpt lat="46.0656894330961" lon="15.2869328780365">
        <ele>776.404741375827</ele>
        <time>2018-05-08T16:51:34Z</time>
      </trkpt>
      <trkpt lat="46.0656807425212" lon="15.2868113277091">
        <ele>778.712032963849</ele>
        <time>2018-05-08T16:51:34Z</time>
      </trkpt>
      <trkpt lat="46.0656621186556" lon="15.2867039443307">
        <ele>779.674716746808</ele>
        <time>2018-05-08T16:51:34Z</time>
      </trkpt>
      <trkpt lat="46.0656653947486" lon="15.2865546776021">
        <ele>780.089068398975</ele>
        <time>2018-05-08T16:51:34Z</time>
      </trkpt>
      <trkpt lat="46.0656771866273" lon="15.2864377459275">
        <ele>781.031463543575</ele>
        <time>2018-05-08T16:51:34Z</time>
      </trkpt>
      <trkpt lat="46.0656972289047" lon="15.2863396121421">
        <ele>782.6688612517</ele>
        <time>2018-05-08T16:51:34Z</time>
      </trkpt>
      <trkpt lat="46.0657076341205" lon="15.2862175271274">
        <ele>783.402624201495</ele>
        <time>2018-05-08T16:51:34Z</time>
      </trkpt>
      <trkpt lat="46.0657470852126" lon="15.2860972863897">
        <ele>786.513268677562</ele>
        <time>2018-05-08T16:51:34Z</time>
      </trkpt>
      <trkpt lat="46.0657573145692" lon="15.2859654935364">
        <ele>787.570186001257</ele>
        <time>2018-05-08T16:51:34Z</time>
      </trkpt>
      <trkpt lat="46.0657629604193" lon="15.2858672846419">
        <ele>788.355988618524</ele>
        <time>2018-05-08T16:51:34Z</time>
      </trkpt>
      <trkpt lat="46.0657766779246" lon="15.2857794585189">
        <ele>789.638373262766</ele>
        <time>2018-05-08T16:51:34Z</time>
      </trkpt>
      <trkpt lat="46.0657877676477" lon="15.285663181311">
        <ele>790.716432221769</ele>
        <time>2018-05-08T16:51:34Z</time>
      </trkpt>
      <trkpt lat="46.0657952192421" lon="15.2855623964853">
        <ele>791.432642088684</ele>
        <time>2018-05-08T16:51:34Z</time>
      </trkpt>
      <trkpt lat="46.065764890936" lon="15.2854575377987">
        <ele>789.911035626994</ele>
        <time>2018-05-08T16:51:34Z</time>
      </trkpt>
      <trkpt lat="46.0657183507666" lon="15.285359058186">
        <ele>788.285513287452</ele>
        <time>2018-05-08T16:51:34Z</time>
      </trkpt>
      <trkpt lat="46.0656388466277" lon="15.2852263749927">
        <ele>785.838385731596</ele>
        <time>2018-05-08T16:51:34Z</time>
      </trkpt>
      <trkpt lat="46.0656095447495" lon="15.285150617921">
        <ele>785.187139289574</ele>
        <time>2018-05-08T16:51:34Z</time>
      </trkpt>
      <trkpt lat="46.0656098757481" lon="15.2850187739455">
        <ele>787.157658541623</ele>
        <time>2018-05-08T16:51:34Z</time>
      </trkpt>
      <trkpt lat="46.0656216141659" lon="15.2849225234661">
        <ele>789.387549003882</ele>
        <time>2018-05-08T16:51:34Z</time>
      </trkpt>
      <trkpt lat="46.0656372374352" lon="15.2847920512193">
        <ele>792.486650452869</ele>
        <time>2018-05-08T16:51:34Z</time>
      </trkpt>
      <trkpt lat="46.0656537084604" lon="15.2846822649784">
        <ele>795.507751452708</ele>
        <time>2018-05-08T16:51:34Z</time>
      </trkpt>
      <trkpt lat="46.0656629878467" lon="15.2845698562642">
        <ele>798.111684775134</ele>
        <time>2018-05-08T16:51:34Z</time>
      </trkpt>
      <trkpt lat="46.0656577642366" lon="15.2845000285272">
        <ele>798.909959240489</ele>
        <time>2018-05-08T16:51:34Z</time>
      </trkpt>
      <trkpt lat="46.0656876147045" lon="15.2844368451531">
        <ele>802.243039805776</ele>
        <time>2018-05-08T16:51:34Z</time>
      </trkpt>
      <trkpt lat="46.0656716846243" lon="15.2843307690875">
        <ele>802.853357182546</ele>
        <time>2018-05-08T16:51:34Z</time>
      </trkpt>
      <trkpt lat="46.0656205961897" lon="15.2842516561678">
        <ele>800.27785441044</ele>
        <time>2018-05-08T16:51:34Z</time>
      </trkpt>
      <trkpt lat="46.065588389543" lon="15.2841778113335">
        <ele>799.021957172244</ele>
        <time>2018-05-08T16:51:34Z</time>
      </trkpt>
      <trkpt lat="46.0655877323624" lon="15.2840808626172">
        <ele>800.320678131027</ele>
        <time>2018-05-08T16:51:34Z</time>
      </trkpt>
      <trkpt lat="46.0655816604268" lon="15.283990348976">
        <ele>800.541428858506</ele>
        <time>2018-05-08T16:51:34Z</time>
      </trkpt>
      <trkpt lat="46.0655999172595" lon="15.2838857422392">
        <ele>802.69127484206</ele>
        <time>2018-05-08T16:51:34Z</time>
      </trkpt>
      <trkpt lat="46.065596788049" lon="15.2837778058246">
        <ele>803.256902922946</ele>
        <time>2018-05-08T16:51:34Z</time>
      </trkpt>
      <trkpt lat="46.0656089016065" lon="15.2836732404734">
        <ele>804.882262591968</ele>
        <time>2018-05-08T16:51:34Z</time>
      </trkpt>
      <trkpt lat="46.065610538022" lon="15.2835962535585">
        <ele>805.549083074349</ele>
        <time>2018-05-08T16:51:34Z</time>
      </trkpt>
      <trkpt lat="46.0656298958739" lon="15.2834910182151">
        <ele>807.605041537565</ele>
        <time>2018-05-08T16:51:34Z</time>
      </trkpt>
      <trkpt lat="46.0656409639149" lon="15.2833824963791">
        <ele>808.822885142545</ele>
        <time>2018-05-08T16:51:34Z</time>
      </trkpt>
      <trkpt lat="46.0656573723173" lon="15.2832972689019">
        <ele>810.175236171255</ele>
        <time>2018-05-08T16:51:34Z</time>
      </trkpt>
      <trkpt lat="46.0656979400225" lon="15.2831856550872">
        <ele>813.05595152764</ele>
        <time>2018-05-08T16:51:34Z</time>
      </trkpt>
      <trkpt lat="46.0657241939818" lon="15.2831211598443">
        <ele>814.820936150658</ele>
        <time>2018-05-08T16:51:34Z</time>
      </trkpt>
      <trkpt lat="46.0657235906738" lon="15.2830022368534">
        <ele>815.043167253478</ele>
        <time>2018-05-08T16:51:34Z</time>
      </trkpt>
      <trkpt lat="46.0657147993061" lon="15.2829194647684">
        <ele>814.719958730608</ele>
        <time>2018-05-08T16:51:34Z</time>
      </trkpt>
      <trkpt lat="46.0657069623623" lon="15.2828147232962">
        <ele>814.602631363068</ele>
        <time>2018-05-08T16:51:34Z</time>
      </trkpt>
      <trkpt lat="46.0657002202612" lon="15.2827119385969">
        <ele>817.870313603692</ele>
        <time>2018-05-08T16:51:34Z</time>
      </trkpt>
      <trkpt lat="46.0656951692376" lon="15.2825723111082">
        <ele>822.538313589729</ele>
        <time>2018-05-08T16:51:34Z</time>
      </trkpt>
      <trkpt lat="46.0656538877721" lon="15.2824486430235">
        <ele>824.620631315578</ele>
        <time>2018-05-08T16:51:34Z</time>
      </trkpt>
      <trkpt lat="46.0656344114755" lon="15.282320575105">
        <ele>828.074631293826</ele>
        <time>2018-05-08T16:51:34Z</time>
      </trkpt>
      <trkpt lat="46.0656238104714" lon="15.2822416717939">
        <ele>830.280631288066</ele>
        <time>2018-05-08T16:51:34Z</time>
      </trkpt>
      <trkpt lat="46.0655998319726" lon="15.2821148735366">
        <ele>832.832757780891</ele>
        <time>2018-05-08T16:51:34Z</time>
      </trkpt>
      <trkpt lat="46.0655506121316" lon="15.2820073350682">
        <ele>832.861270795756</ele>
        <time>2018-05-08T16:51:34Z</time>
      </trkpt>
      <trkpt lat="46.0654689529883" lon="15.2819190196014">
        <ele>830.901693409952</ele>
        <time>2018-05-08T16:51:34Z</time>
      </trkpt>
      <trkpt lat="46.0654206295047" lon="15.2818127787535">
        <ele>831.347322292807</ele>
        <time>2018-05-08T16:51:34Z</time>
      </trkpt>
      <trkpt lat="46.0653641985348" lon="15.2817103743758">
        <ele>830.655523736239</ele>
        <time>2018-05-08T16:51:34Z</time>
      </trkpt>
      <trkpt lat="46.0653176551246" lon="15.2816118986105">
        <ele>830.045003956303</ele>
        <time>2018-05-08T16:51:34Z</time>
      </trkpt>
      <trkpt lat="46.0653969745452" lon="15.2815796057262">
        <ele>836.330196782126</ele>
        <time>2018-05-08T16:51:34Z</time>
      </trkpt>
      <trkpt lat="46.0654843177791" lon="15.2815529081111">
        <ele>841.390718204708</ele>
        <time>2018-05-08T16:51:34Z</time>
      </trkpt>
      <trkpt lat="46.0654965889936" lon="15.2815521789776">
        <ele>841.963356794078</ele>
        <time>2018-05-08T16:51:34Z</time>
      </trkpt>
      <trkpt lat="46.065576466055" lon="15.2815428932549">
        <ele>845.795813618148</ele>
        <time>2018-05-08T16:51:34Z</time>
      </trkpt>
      <trkpt lat="46.0656935540434" lon="15.281495019728">
        <ele>850.61287530898</ele>
        <time>2018-05-08T16:51:34Z</time>
      </trkpt>
      <trkpt lat="46.0657958407846" lon="15.2815197795569">
        <ele>855.885457825246</ele>
        <time>2018-05-08T16:51:34Z</time>
      </trkpt>
      <trkpt lat="46.0659037109073" lon="15.2815607257028">
        <ele>860.03417938694</ele>
        <time>2018-05-08T16:51:34Z</time>
      </trkpt>
      <trkpt lat="46.0660013706362" lon="15.2816371666356">
        <ele>862.735601406821</ele>
        <time>2018-05-08T16:51:34Z</time>
      </trkpt>
      <trkpt lat="46.0661205276978" lon="15.2816620132454">
        <ele>867.417456806192</ele>
        <time>2018-05-08T16:51:34Z</time>
      </trkpt>
      <trkpt lat="46.0662430387785" lon="15.2816949560112">
        <ele>872.143931327358</ele>
        <time>2018-05-08T16:51:34Z</time>
      </trkpt>
      <trkpt lat="46.0664140526586" lon="15.2818144941635">
        <ele>877.58917263094</ele>
        <time>2018-05-08T16:51:34Z</time>
      </trkpt>
      <trkpt lat="46.0665300432172" lon="15.2816124049558">
        <ele>885.17528341774</ele>
        <time>2018-05-08T16:51:34Z</time>
      </trkpt>
      <trkpt lat="46.0666033163708" lon="15.2815449170734">
        <ele>888.812101130877</ele>
        <time>2018-05-08T16:51:34Z</time>
      </trkpt>
      <trkpt lat="46.066655152277" lon="15.2815047877">
        <ele>890.783764262986</ele>
        <time>2018-05-08T16:51:34Z</time>
      </trkpt>
      <trkpt lat="46.0666517862166" lon="15.2815015389011">
        <ele>890.634750705986</ele>
        <time>2018-05-08T16:51:34Z</time>
      </trkpt>
      <trkpt lat="46.0666551522755" lon="15.2815047877">
        <ele>890.783764206259</ele>
        <time>2018-05-08T16:51:34Z</time>
      </trkpt>
      <trkpt lat="46.066771455351" lon="15.281538746908">
        <ele>895.331539843746</ele>
        <time>2018-05-08T16:51:34Z</time>
      </trkpt>
      <trkpt lat="46.0668359297114" lon="15.2816631696653">
        <ele>897.151012427139</ele>
        <time>2018-05-08T16:51:34Z</time>
      </trkpt>
      <trkpt lat="46.0668947359133" lon="15.2818961450026">
        <ele>897.589689370488</ele>
        <time>2018-05-08T16:51:34Z</time>
      </trkpt>
      <trkpt lat="46.06693214028" lon="15.2820514529422">
        <ele>897.653411555788</ele>
        <time>2018-05-08T16:51:34Z</time>
      </trkpt>
      <trkpt lat="46.0670481939167" lon="15.28220159235">
        <ele>900.807272161461</ele>
        <time>2018-05-08T16:51:34Z</time>
      </trkpt>
      <trkpt lat="46.0672262522065" lon="15.2825111242753">
        <ele>907.291122049689</ele>
        <time>2018-05-08T16:51:34Z</time>
      </trkpt>
      <trkpt lat="46.0672677857216" lon="15.282797637986">
        <ele>908.042372824252</ele>
        <time>2018-05-08T16:51:34Z</time>
      </trkpt>
      <trkpt lat="46.0672416001684" lon="15.2831595418092">
        <ele>910.508340386998</ele>
        <time>2018-05-08T16:51:34Z</time>
      </trkpt>
      <trkpt lat="46.0671933941893" lon="15.2833674090242">
        <ele>911.503443944704</ele>
        <time>2018-05-08T16:51:34Z</time>
      </trkpt>
      <trkpt lat="46.0671893402909" lon="15.283585746337">
        <ele>913.225292579628</ele>
        <time>2018-05-08T16:51:34Z</time>
      </trkpt>
      <trkpt lat="46.0671636466843" lon="15.2837498775644">
        <ele>913.459387089799</ele>
        <time>2018-05-08T16:51:34Z</time>
      </trkpt>
      <trkpt lat="46.067129320059" lon="15.2839470733394">
        <ele>913.444049491925</ele>
        <time>2018-05-08T16:51:34Z</time>
      </trkpt>
      <trkpt lat="46.0671256428969" lon="15.284068239408">
        <ele>914.105473569847</ele>
        <time>2018-05-08T16:51:34Z</time>
      </trkpt>
      <trkpt lat="46.067136517827" lon="15.2842169492524">
        <ele>916.011789490893</ele>
        <time>2018-05-08T16:51:34Z</time>
      </trkpt>
      <trkpt lat="46.067128017305" lon="15.2843249187142">
        <ele>916.739704605777</ele>
        <time>2018-05-08T16:51:34Z</time>
      </trkpt>
      <trkpt lat="46.0671251982878" lon="15.2843727318324">
        <ele>917.089452058846</ele>
        <time>2018-05-08T16:51:34Z</time>
      </trkpt>
      <trkpt lat="46.0671014906854" lon="15.2844979953374">
        <ele>916.948000201979</ele>
        <time>2018-05-08T16:51:34Z</time>
      </trkpt>
      <trkpt lat="46.067094250573" lon="15.2845147622118">
        <ele>916.656183778333</ele>
        <time>2018-05-08T16:51:34Z</time>
      </trkpt>
      <trkpt lat="46.0670928065106" lon="15.2847319181672">
        <ele>918.541325141666</ele>
        <time>2018-05-08T16:51:34Z</time>
      </trkpt>
      <trkpt lat="46.0671855862459" lon="15.284779062497">
        <ele>925.393399030871</ele>
        <time>2018-05-08T16:51:34Z</time>
      </trkpt>
      <trkpt lat="46.0672205571251" lon="15.2847909936476">
        <ele>927.064046722275</ele>
        <time>2018-05-08T16:51:34Z</time>
      </trkpt>
      <trkpt lat="46.0672486784232" lon="15.2847895234214">
        <ele>927.923108891745</ele>
        <time>2018-05-08T16:51:34Z</time>
      </trkpt>
      <trkpt lat="46.0672667301916" lon="15.2847669956043">
        <ele>928.763682366259</ele>
        <time>2018-05-08T16:51:34Z</time>
      </trkpt>
      <trkpt lat="46.0672803561347" lon="15.2847153603724">
        <ele>928.417042729569</ele>
        <time>2018-05-08T16:51:34Z</time>
      </trkpt>
      <trkpt lat="46.0673009018194" lon="15.2846321688611">
        <ele>927.596855743515</ele>
        <time>2018-05-08T16:51:34Z</time>
      </trkpt>
      <trkpt lat="46.0673089995807" lon="15.2846322107547">
        <ele>927.801466484477</ele>
        <time>2018-05-08T16:51:34Z</time>
      </trkpt>
      <trkpt lat="46.0673884883728" lon="15.2846512876716">
        <ele>930.165524854014</ele>
        <time>2018-05-08T16:51:34Z</time>
      </trkpt>
      <trkpt lat="46.0674401947572" lon="15.2847001071634">
        <ele>932.492755191411</ele>
        <time>2018-05-08T16:51:34Z</time>
      </trkpt>
      <trkpt lat="46.0674895848825" lon="15.2847019009244">
        <ele>933.865658037748</ele>
        <time>2018-05-08T16:51:34Z</time>
      </trkpt>
      <trkpt lat="46.0675200813799" lon="15.2847767868699">
        <ele>936.061325483499</ele>
        <time>2018-05-08T16:51:34Z</time>
      </trkpt>
      <trkpt lat="46.0676279866856" lon="15.2848031984409">
        <ele>939.159161114124</ele>
        <time>2018-05-08T16:51:34Z</time>
      </trkpt>
      <trkpt lat="46.0678629027854" lon="15.2847720980846">
        <ele>941.844805757299</ele>
        <time>2018-05-08T16:51:34Z</time>
      </trkpt>
      <trkpt lat="46.0679601020643" lon="15.2847983568018">
        <ele>942.640944734998</ele>
        <time>2018-05-08T16:51:34Z</time>
      </trkpt>
    </trkseg>
  </trk>
</gpx>
